User: anonymous   Login
Location: Tyler Bend Campground
(35.9875°N, 92.7606°W)
Time: 12:52:58
(UTC-05:00)
Language:

Iridium 39 - Orbit

View from above orbital plane
View from above orbital plane
View from above satellite
View from above satellite

Ground track
Ground track

The orbit data is extracted from the following two-line orbital elements,

1 25042U 97069D   15091.29234715  .00000765  00000-0  26608-3 0  9996
2 25042 086.4036 359.8692 0002292 080.1030 280.0424 14.34224202910511
Epoch (UTC): 01 April 2015 07:00:58
Eccentricity: 0.0002292
inclination: 86.4036°
perigee height: 776 km
apogee height: 779 km
right ascension of ascending node: 359.8692°
argument of perigee: 80.1030°
revolutions per day: 14.34224202
mean anomaly at epoch: 280.0424°
orbit number at epoch: 91051

The dashed part of the orbit path shows where the satellite is in the earth's shadow,  

DLR